Regional Weather Roundup
Issued by NWS Cleveland, OH

Home | Current Version | Previous Version | Graphics & Text | Print | Product List | Glossary On
Versions: 1 2 3 4 5 6 7 8 9 10 11 12 13 14 15 16 17 18 19 20 21 22 23 24 25 26 27 28 29 30 31 32 33 34 35 36 37 38 39 40 41 42 43 44 45 46 47 48 49 50
000
ASUS41 KCLE 272110
RWRCLE
OHIO REGIONAL WEATHER ROUNDUP
NATIONAL WEATHER SERVICE CLEVELAND, OH
500 PM EDT SAT AUG 27 2016

NOTE: "FAIR" INDICATES FEW OR NO CLOUDS BELOW 12,000 FEET WITH NO
SIGNIFICANT WEATHER AND/OR OBSTRUCTIONS TO VISIBILITY.

OHZ001>008-015>018-024>027-034-035-043-044-272200-
   NORTHWEST OHIO

CITY           SKY/WX    TMP DP  RH WIND       PRES   REMARKS
DEFIANCE       CLOUDY    79  70  74 E5        30.08F
FINDLAY        CLOUDY    78  69  73 N5        30.10R
TOLEDO EXPRESS MOSUNNY   73  73 100 E8        30.09F
TOLEDO EXEC    CLOUDY    75  73  93 E7        30.11F
LIMA           LGT RAIN  75  73  93 SE7       30.10S
$$

OHZ009>014-019>023-028>033-038-089-272200-
   NORTHEAST OHIO

CITY           SKY/WX    TMP DP  RH WIND       PRES   REMARKS
CLE-HOPKINS    PTSUNNY   92  67  43 S7        30.12S HX  95
CLE-LAKEFRONT  MOSUNNY   89  70  53 NW7       30.08S HX  94
CUY CO. ARPT   MOSUNNY   91  68  46 S6        30.12S HX  95
LORAIN-ELYRIA  PTSUNNY   89  69  51 SW10      30.11S HX  93
ASHTABULA      SUNNY     85  62  46 SE6       30.15R
AKRON-CANTON   PTSUNNY   89  65  44 S7        30.13R HX  91
WOOSTER        MOSUNNY   87  70  56 S6        30.14R HX  92
MANSFIELD      SUNNY     89  69  51 S10       30.12F HX  93
YOUNGSTOWN     MOSUNNY   87  65  47 VRB6      30.14S
$$

OHZ042-051>053-060>062-070>072-077>081-272200-
  SOUTHWEST OHIO

CITY           SKY/WX    TMP DP  RH WIND       PRES   REMARKS
CINC-COVINGTON PTSUNNY   78  73  84 E5        30.10F
CINC-LUNKEN    PTSUNNY   75  72  88 VRB5      30.11F
HAMILTON       MOSUNNY   81  69  67 E5        30.11F
DAYTON         LGT RAIN  74  71  91 E7        30.12F
WRIGHT-PAT AFB PTSUNNY   72  72 100 E6        30.12F
DAYTON GENERAL CLOUDY    74  69  85 E12       30.12F
WILMINGTON     MOSUNNY   73  67  81 N7        30.14F
$$

OHZ036-037-039>041-045>050-054>059-063>069-073>076-082>088-272200-
  CENTRAL AND SOUTHEAST OHIO

CITY           SKY/WX    TMP DP  RH WIND       PRES   REMARKS
COLUMBUS       TSTM      79  65  62 W22G39    30.15R
OSU AIRPORT    LGT RAIN  74  67  78 W30G46    30.14R
BOLTON FIELD   LGT RAIN  72  70  94 W13G20    30.16R
RICKENBACK AFB PTSUNNY   83  69  61 NW32G43   30.13R THUNDER
NEWARK         MOSUNNY   89  71  55 SW7       30.10S HX  95
MARION         SUNNY     86  70  58 SW8       30.11R HX  90
LANCASTER      MOSUNNY   91  73  55 SW7       30.11R HX  99
ZANESVILLE     MOSUNNY   92  69  47 S7        30.11S HX  97
NEW PHILLY     MOSUNNY   92  68  45 SW6       30.12S HX  96
$$




USA.gov is the U.S. government's official web portal to all federal, state and local government web resources and services.